Regional Weather Roundup
Issued by NWS

Home | Current Version | Previous Version | Text Only | Print | Product List | Glossary Off
Versions: 1 2 3 4 5 6 7 8 9 10 11 12 13 14 15 16 17 18 19 20 21 22 23 24 25 26 27 28 29 30 31 32 33 34 35 36 37 38 39 40 41 42 43 44 45 46 47 48 49 50

000
ASUS43 KLOT 010321
RWRIL

ILLINOIS REGIONAL WEATHER ROUNDUP
NATIONAL WEATHER SERVICE CHICAGO/ROMEOVILLE IL
1000 PM CDT MON AUG 31 2015

NOTE: "FAIR" INDICATES FEW OR NO CLOUDS BELOW 12,000 FEET WITH NO
SIGNIFICANT WEATHER AND/OR OBSTRUCTIONS TO VISIBILITY.

* THESE STATIONS ARE NOT UNDER NWS QUALITY CONTROL. THEY ALSO MAY NOT
  REPORT WEATHER SUCH AS PRECIPITATION OR FOG.

ILZ001-002-007-009-015-016-024-010400-
NORTHWEST ILLINOIS

CITY           SKY/WX    TMP DP  RH WIND       PRES   REMARKS
MOLINE         CLEAR     76  71  85 SE6       29.99R
STERLING*      CLEAR     75  72  88 SE5       30.00R
SAVANNA*       FAIR      75  70  83 CALM      30.00R
$$

ILZ003-004-008-010-011-017-018-010400-
NORTH CENTRAL ILLINOIS

CITY           SKY/WX    TMP DP  RH WIND       PRES   REMARKS
ROCKFORD       CLEAR     73  68  84 CALM      30.04R
FREEPORT*      CLEAR     70  68  93 S5        30.04R
ROCHELLE*      CLEAR     70  68  93 SE5       30.04R
DE KALB*       CLEAR     71  68  91 SE5       30.05S
PERU*          CLEAR     78  69  75 S9        30.03S HX  80
$$

ILZ005-006-012>014-019>023-010400-
NORTHEAST ILLINOIS

CITY           SKY/WX    TMP DP  RH WIND       PRES   REMARKS
CHICAGO-OHARE  CLEAR     73  67  81 SE6       30.04R
CHICAGO-MIDWAY CLEAR     78  68  71 CALM      30.04R HX  80
AURORA         CLEAR     71  67  87 CALM      30.05R FOG
LANSING*       CLEAR     73  69  87 CALM      30.05R
JOLIET*        CLEAR     73  71  93 CALM      30.04S
WAUKEGAN       CLEAR     68  66  93 SE3       30.04R
DUPAGE AIRPORT CLEAR     70  67  90 CALM      30.04R FOG
KANKAKEE*      CLEAR     72  70  93 S5        30.06S
WHEELING       CLEAR     71  66  84 CALM      30.05R
MORRIS*        CLEAR     74  70  87 S3        30.03S
ROMEOVILLE*    CLEAR     72  68  86 S6        30.04S
NORTHERLY ISL    N/A     70  67  90 CALM        N/A
$$

LMZ740>746-010400-
SOUTHERN LAKE MICHIGAN

STATION/POSITION SKY/WX   TEMP    WIND        PRES    VSBY  WAVE
                          AIR SEA DIR/SP/G                  HT/PER
                          (F)     (DEG/KT/KT) (MB)    (MI)  (FT/S)
SOUTHERN BUOY              70 70  130/  6/  6 1016.9
WILMETTE HARBOR            68 63  300/  2/  2   N/A           0
HARRISON CRIB              72     180/  5/  5   N/A
BURNHAM HARBOR             70        CALM       N/A
CALUMET HARBOR             74     110/  3/  5   N/A
BURNS HARBOR               79     150/  4/  5 1017.6R
MICHIGAN CITY              75     120/  5/  6   N/A
MICHIGAN CITY 6N           74 72  170/  4/  4   N/A           0
ST. JOSEPH                 74 72  180/  6/  8   N/A           0
$$

ILZ025>027-034>036-040-047-049-050-058-095>099-010400-
WEST-CENTRAL ILLINOIS

CITY           SKY/WX    TMP DP  RH WIND       PRES   REMARKS
QUINCY         CLEAR     78  72  81 S7        30.01R HX  80
GALESBURG*     PTCLDY    75  70  85 SE3       30.01S
MACOMB*        CLEAR     74  70  89 S5        30.03S
JACKSONVILLE*  CLEAR     80  72  77 S6        30.03R HX  84
PITTSFIELD*    CLEAR     77  72  84 SE5       30.04R
$$

ILZ028>032-037-038-041>044-048-051>054-059>061-010400-
CENTRAL ILLINOIS

CITY           SKY/WX    TMP DP  RH WIND       PRES   REMARKS
PONTIAC        MOCLDY    76  73  89 S6        30.05S
BLOOMINGTON    PTCLDY    77  73  87 S9        30.07R
DECATUR        CLEAR     76  71  85 S7        30.06S
PEORIA         PTCLDY    80  70  71 S8        30.03R HX  83
LACON*         CLEAR     76  71  84 SE6       30.01S
LINCOLN*       CLEAR     77  70  78 SE5       30.04R
SPRINGFIELD    CLEAR     79  71  76 S8        30.04R HX  82
TAYLORVILLE    CLEAR     73  72  94 S7        30.05S
$$

ILZ033-039-045-046-055>057-062-063-010400-
EAST-CENTRAL ILLINOIS

CITY           SKY/WX    TMP DP  RH WIND       PRES   REMARKS
CHAMPAIGN      CLEAR     72  68  87 S3        30.07S
RANTOUL*       PTCLDY    74  71  88 CALM      30.07S
MATTOON        HAZE      77  69  76 S6        30.06S VSB 1/2
PARIS*         CLEAR     69  67  94 CALM      30.08S
$$

ILZ079-100>102-010400-
SOUTHWEST ILLINOIS

CITY           SKY/WX    TMP DP  RH WIND       PRES   REMARKS
ALTON          CLEAR     73  70  88 SE6       30.04S
BELLEVILLE     CLEAR     77  75  93 E2        30.04R
CAHOKIA*       CLEAR     77  72  84 SE5       30.04R
SPARTA*        CLEAR     77  71  81 S3        30.07S
$$

ILZ064>066-069>071-074>076-080>082-084>086-088>090-092>094-010400-
SOUTH-CENTRAL ILLINOIS

CITY           SKY/WX    TMP DP  RH WIND       PRES   REMARKS
CARBONDALE     CLEAR     74  70  87 CALM      30.07R
CAIRO*         CLEAR     71  71 100 CALM      30.07S
EFFINGHAM*     CLEAR     72  68  88 SE3       30.09R
MARION         CLEAR     75  72  88 CALM      30.08S
MT. VERNON     CLEAR     72  64  78 CALM      30.09R
SALEM*         CLEAR     77  70  80 CALM      30.07S
METROPOLIS*    FAIR      70  70 100 CALM      30.09R
$$

ILZ067-068-072-073-078-083-087-091-010400-
SOUTHEAST ILLINOIS

CITY           SKY/WX    TMP DP  RH WIND       PRES   REMARKS
LAWRENCEVILLE  CLEAR     73  67  81 S3        30.08R
FLORA*         CLEAR     71  67  88 CALM      30.08S
FAIRFIELD*     CLEAR     74  69  85 CALM      30.07S
HARRISBURG*    CLEAR     71  69  92 CALM      30.08S
ROBINSON*      CLEAR     69  66  92 S3        30.09S
CARMI*         CLEAR     70  68  93 CALM      30.08R
$$

ABBREVIATIONS USED IN REMARKS
   TC - TEMPERATURE IN CELSIUS
  WCI - WIND CHILL INDEX
   HX - HEAT INDEX
  VSB - VISIBILITY
$$




USA.gov is the U.S. government's official web portal to all federal, state and local government web resources and services.